STARLINK-35604

Last updated on Mon Dec 15 2025 00:02:11 GMT+0000 (Coordinated Universal Time)

1 66802U 25278M 25348.25003472 -.01269207 00000+0 -65247-2 0 9995 2 66802 42.9970 242.7868 0001912 278.8346 115.0361 15.82961047 3208
UTC large
Height (km)
Speed (km/s)
/
Latitude / Longitude
Inclination (degrees)
Orbital Period (minutes)
Azimuth
Elevation
Range (km)
Doppler Factor

Next 0 passes for location: London (51.5072 / 0.1276)

Sorry there are no passes over London.